Altus, OK

8:52 AM CDT on May 30, 2017 (GMT -0500)
Altus Municipal

Weather History for KAXS - January, 2012

Change the Weather History Date:

Monday, January 9, 2012

  Actual Average (KLTS) Record (KLTS)
Temperature  
Mean Temperature 40 °F -  
Max Temperature 46 °F 48 °F 80 °F (2009)
Min Temperature 33 °F 26 °F 12 °F (1999)
Degree Days  
Heating Degree Days 26    
Moisture  
Dew Point 28 °F    
Average Humidity 61    
Maximum Humidity 81    
Minimum Humidity 50    
Precipitation  
Precipitation 0.00 in - - ()
Sea Level Pressure  
Sea Level Pressure 30.24 in    
Wind  
Wind Speed 12 mph (North)    
Max Wind Speed 18 mph    
Max Gust Speed 23 mph    
Visibility 10 miles    
Events      
Averages and records for this station are not official NWS values.
T = Trace of Precipitation, MM = Missing Value Source: NWS Daily Summary

Daily Weather History Graph

Daily Weather History Graph

Search for Another Location

Airport or City:

Trip Planner

Search our weather history database for the weather conditions in past years. The results will help you decide how hot, cold, wet, or windy it might be!

Date:

Astronomy

Jan. 09, 2012 Rise Set
Actual Time 7:45 AM CST 5:43 PM CST
Civil Twilight 7:17 AM CST 6:11 PM CST
Nautical Twilight 6:46 AM CST 6:42 PM CST
Astronomical Twilight 6:15 AM CST 7:13 PM CST
Moon 6:29 PM CST (1/9) 7:48 AM CST (1/9)
Length of Visible Light 10h 53m
Length of Day
9h 58m
Full, 100% of the Moon is Illuminated
Jan 9
Full
Jan 16
Last Quarter
Jan 23
New
Jan 30
First Quarter
Feb 7
Full

Hourly Weather History & Observations

Time (CST) Temp. Windchill Dew Point Humidity Pressure Visibility Wind Dir Wind Speed Gust Speed Precip Events Conditions
12:15 AM 42.8 °F 37.5 °F 26.6 °F 53% 30.21 in 10.0 mi North 9.2 mph - N/A   Clear
12:35 AM 42.8 °F 37.0 °F 26.6 °F 53% 30.21 in 10.0 mi North 10.4 mph - N/A   Clear
12:55 AM 42.8 °F 35.8 °F 26.6 °F 53% 30.22 in 10.0 mi NE 13.8 mph - N/A   Clear
1:15 AM 42.8 °F 35.1 °F 26.6 °F 53% 30.21 in 10.0 mi North 16.1 mph 19.6 mph N/A   Clear
1:35 AM 41.0 °F 34.3 °F 26.6 °F 57% 30.23 in 10.0 mi North 11.5 mph - N/A   Clear
1:55 AM 41.0 °F 33.9 °F 26.6 °F 57% 30.24 in 10.0 mi North 12.7 mph - N/A   Clear
2:15 AM 41.0 °F 35.2 °F 26.6 °F 57% 30.23 in 10.0 mi North 9.2 mph - N/A   Clear
2:35 AM 39.2 °F 31.2 °F 26.6 °F 61% 30.23 in 10.0 mi North 13.8 mph - N/A   Clear
2:55 AM 39.2 °F 31.6 °F 26.6 °F 61% 30.24 in 10.0 mi North 12.7 mph - N/A   Clear
3:15 AM 37.4 °F 29.8 °F 26.6 °F 65% 30.25 in 10.0 mi North 11.5 mph - N/A   Clear
3:35 AM 37.4 °F 29.8 °F 26.6 °F 65% 30.25 in 10.0 mi North 11.5 mph - N/A   Clear
3:55 AM 37.4 °F 30.8 °F 26.6 °F 65% 30.26 in 10.0 mi North 9.2 mph - N/A   Clear
4:15 AM 33.8 °F 25.8 °F 26.6 °F 75% 30.25 in 10.0 mi North 10.4 mph - N/A   Clear
4:35 AM 35.6 °F 28.6 °F 26.6 °F 70% 30.25 in 10.0 mi North 9.2 mph - N/A   Clear
4:55 AM 33.8 °F 25.8 °F 26.6 °F 75% 30.25 in 10.0 mi North 10.4 mph - N/A   Clear
5:15 AM 35.6 °F 27.1 °F 26.6 °F 70% 30.25 in 10.0 mi North 12.7 mph - N/A   Clear
5:35 AM 33.8 °F 25.8 °F 26.6 °F 75% 30.26 in 10.0 mi North 10.4 mph - N/A   Clear
5:55 AM 33.8 °F 24.8 °F 26.6 °F 75% 30.25 in 10.0 mi North 12.7 mph - N/A   Clear
6:15 AM 33.8 °F 24.8 °F 26.6 °F 75% 30.26 in 10.0 mi North 12.7 mph - N/A   Clear
6:35 AM 33.8 °F 24.3 °F 26.6 °F 75% 30.25 in 10.0 mi North 13.8 mph - N/A   Clear
6:55 AM 33.8 °F 24.8 °F 28.4 °F 81% 30.24 in 10.0 mi North 12.7 mph - N/A   Clear
7:15 AM 35.6 °F 26.2 °F 28.4 °F 75% 30.24 in 10.0 mi North 15.0 mph - N/A   Clear
7:35 AM 33.8 °F 24.3 °F 28.4 °F 81% 30.24 in 10.0 mi North 13.8 mph - N/A   Clear
8:15 AM 35.6 °F 27.1 °F 26.6 °F 70% 30.27 in 10.0 mi North 12.7 mph - N/A   Clear
8:35 AM 35.6 °F 27.5 °F 28.4 °F 75% 30.27 in 10.0 mi North 11.5 mph - N/A   Clear
8:55 AM 35.6 °F 25.9 °F 28.4 °F 75% 30.26 in 10.0 mi North 16.1 mph - N/A   Clear
9:15 AM 35.6 °F 26.6 °F 28.4 °F 75% 30.28 in 10.0 mi North 13.8 mph - N/A   Clear
9:35 AM 35.6 °F 25.5 °F 28.4 °F 75% 30.29 in 10.0 mi North 17.3 mph - N/A   Clear
9:55 AM 37.4 °F 27.8 °F 28.4 °F 70% 30.29 in 10.0 mi North 17.3 mph 20.7 mph N/A   Clear
10:35 AM 39.2 °F 30.2 °F 28.4 °F 65% 30.29 in 10.0 mi North 17.3 mph - N/A   Clear
10:55 AM 41.0 °F 33.5 °F 26.6 °F 57% 30.28 in 10.0 mi North 13.8 mph - N/A   Clear
11:15 AM 41.0 °F 33.5 °F 28.4 °F 61% 30.28 in 10.0 mi North 13.8 mph - N/A   Clear
11:35 AM 41.0 °F 34.7 °F 28.4 °F 61% 30.27 in 10.0 mi North 10.4 mph - N/A   Clear
11:55 AM 42.8 °F 35.4 °F 28.4 °F 57% 30.24 in 10.0 mi North 15.0 mph - N/A   Clear
12:15 PM 44.6 °F 37.2 °F 28.4 °F 53% 30.23 in 10.0 mi North 17.3 mph 20.7 mph N/A   Clear
12:35 PM 44.6 °F 38.1 °F 28.4 °F 53% 30.24 in 10.0 mi North 13.8 mph - N/A   Clear
12:55 PM 44.6 °F 38.8 °F 28.4 °F 53% 30.24 in 10.0 mi North 11.5 mph - N/A   Clear
1:15 PM 44.6 °F 39.7 °F 30.2 °F 57% 30.26 in 10.0 mi North 9.2 mph - N/A   Clear
1:35 PM 46.4 °F 41.9 °F 30.2 °F 53% 30.25 in 10.0 mi North 9.2 mph - N/A   Mostly Cloudy
1:55 PM 46.4 °F 42.4 °F 30.2 °F 53% 30.25 in 10.0 mi North 8.1 mph - N/A   Overcast
2:15 PM 46.4 °F 44.3 °F 28.4 °F 50% 30.24 in 10.0 mi North 4.6 mph - N/A   Mostly Cloudy
2:35 PM 46.4 °F 41.9 °F 30.2 °F 53% 30.24 in 10.0 mi North 9.2 mph - N/A   Mostly Cloudy
2:55 PM 46.4 °F 41.5 °F 28.4 °F 50% 30.22 in 10.0 mi NNE 10.4 mph - N/A   Mostly Cloudy
3:15 PM 46.4 °F 40.1 °F 28.4 °F 50% 30.21 in 10.0 mi NNE 15.0 mph - N/A   Scattered Clouds
3:35 PM 46.4 °F 39.5 °F 28.4 °F 50% 30.19 in 10.0 mi NNE 17.3 mph - N/A   Clear
3:55 PM 46.4 °F 39.2 °F 28.4 °F 50% 30.18 in 10.0 mi North 18.4 mph - N/A   Clear
4:15 PM 46.4 °F 39.5 °F 28.4 °F 50% 30.17 in 10.0 mi North 17.3 mph 23.0 mph N/A   Clear
4:35 PM 46.4 °F 41.1 °F 28.4 °F 50% 30.17 in 10.0 mi North 11.5 mph 19.6 mph N/A   Clear
4:55 PM 46.4 °F 41.5 °F 28.4 °F 50% 30.17 in 10.0 mi North 10.4 mph - N/A   Clear
5:15 PM 46.4 °F 42.4 °F 28.4 °F 50% 30.17 in 10.0 mi North 8.1 mph - N/A   Clear
5:35 PM 44.6 °F 40.7 °F 28.4 °F 53% 30.16 in 10.0 mi NNW 6.9 mph - N/A   Clear
5:55 PM 44.6 °F 43.1 °F 28.4 °F 53% 30.17 in 10.0 mi NW 3.5 mph - N/A   Clear
6:15 PM 44.6 °F - 28.4 °F 53% 30.18 in 10.0 mi Calm Calm - N/A   Clear
6:35 PM 42.8 °F - 30.2 °F 61% 30.18 in 10.0 mi Calm Calm - N/A   Scattered Clouds
6:55 PM 42.8 °F 38.0 °F 32.0 °F 66% 30.16 in 10.0 mi North 8.1 mph - N/A   Mostly Cloudy
7:15 PM 44.6 °F 40.2 °F 30.2 °F 57% 30.15 in 10.0 mi North 8.1 mph - N/A   Overcast
7:35 PM 44.6 °F 41.4 °F 30.2 °F 57% 30.15 in 10.0 mi North 5.8 mph - N/A   Overcast
7:55 PM 44.6 °F 42.2 °F 30.2 °F 57% 30.16 in 10.0 mi ENE 4.6 mph - N/A   Scattered Clouds
8:15 PM 44.6 °F 42.2 °F 30.2 °F 57% 30.17 in 10.0 mi ESE 4.6 mph - N/A   Scattered Clouds
8:35 PM 44.6 °F 43.1 °F 30.2 °F 57% 30.16 in 10.0 mi ENE 3.5 mph - N/A   Clear
8:55 PM 42.8 °F 41.1 °F 30.2 °F 61% 30.15 in 10.0 mi NE 3.5 mph - N/A   Clear
9:15 PM 42.8 °F 38.6 °F 30.2 °F 61% 30.13 in 10.0 mi North 6.9 mph - N/A   Clear
9:35 PM 42.8 °F 37.5 °F 30.2 °F 61% 30.11 in 10.0 mi NNW 9.2 mph - N/A   Clear
9:55 PM 42.8 °F - 30.2 °F 61% 30.13 in 10.0 mi Calm Calm - N/A   Clear
10:15 PM 42.8 °F - 30.2 °F 61% 30.14 in 10.0 mi Calm Calm - N/A   Clear
10:35 PM 42.8 °F 39.3 °F 32.0 °F 66% 30.16 in 10.0 mi South 5.8 mph - N/A   Scattered Clouds
10:55 PM 42.8 °F 40.1 °F 32.0 °F 66% 30.16 in 10.0 mi South 4.6 mph - N/A   Mostly Cloudy
11:15 PM 42.8 °F 41.1 °F 32.0 °F 66% 30.15 in 10.0 mi South 3.5 mph - N/A   Scattered Clouds
11:35 PM 42.8 °F - 32.0 °F 66% 30.15 in 10.0 mi Calm Calm - N/A   Clear
11:55 PM 42.8 °F - 30.2 °F 61% 30.14 in 10.0 mi Calm Calm - N/A   Clear